Location: Albany
(35.0000°S, 118.0000°E)
Time: 17:54:59
(UTC-05:00)

SJ-6B - Visible Passes

Search period start: 23 January 2017 00:00
Search period end: 02 February 2017 00:00
Orbit: 513 x 583 km, 97.8° (Epoch: 22 January)

Date Brightness Start Highest point End Pass type
(mag) Time Alt. Az. Time Alt. Az. Time Alt. Az.
23 Jan 4.8 07:14:33 10° S 07:18:04 32° WSW 07:21:36 10° NW visible
24 Jan 4.5 07:09:38 10° S 07:13:16 37° WSW 07:16:55 10° NW visible
25 Jan 4.2 07:04:44 10° S 07:08:28 43° WSW 07:12:14 10° NW visible
26 Jan 3.9 06:59:50 10° S 07:03:40 50° WSW 07:07:31 10° NNW visible
27 Jan 3.5 06:54:57 10° S 06:58:52 59° WSW 07:02:47 10° NNW visible
28 Jan 3.2 06:50:06 10° S 06:54:02 69° WSW 06:58:01 10° NNW visible
29 Jan 3.0 06:45:15 10° S 06:49:14 81° WSW 06:53:15 10° NNW visible
30 Jan 2.9 06:40:25 10° SSE 06:44:26 87° ENE 06:48:27 10° NNW visible
31 Jan 2.8 06:35:36 10° SSE 06:39:36 75° ENE 06:43:39 10° N visible
